Location: ????????
(56.1167°N, 38.6333°E)
Time: 22:21:39
(UTC+00:00)

Cosmos 1812 - Pass Details

Date: 18 November 2025
Orbit: 342 x 352 km, 82.5° (Epoch: 06 December)

Event Time Altitude Azimuth Distance (km) Brightness Sun altitude
Rises 14:50:24 0° 169° (S) 2,223 6.0 -13.2°
Reaches altitude 10° 14:52:30 10° 159° (SSE) 1,373 4.8 -13.5°
Maximum altitude 14:55:10 31° 94° (E) 677 2.8 -13.9°
Enters shadow 14:55:24 31° 84° (E) 685 2.7 -13.9°
